[[{"header":{"parameterUnit":"m.s-1","parameterCategory":1,"la1":30.2992,"la2":30.254,"lo1":-89.0895,"lo2":-89.0443,"dy":0.0025,"dx":0.0025,"nx":19,"ny":19,"refTime":"2026-03-13T03:00:00:Z","depth":0,"parameterNumber":2,"parameterNumberName":"U-component_of_WINDS"},"data":[0,0,0,-2.2963,-2.2968,-2.3258,-2.3259,-2.3601,-2.3604,0,0,0,0,0,0,0,0,0,0,0,-2.2856,-2.2858,-2.2962,-2.2969,-2.3258,-2.326,-2.36,-2.3604,0,0,0,0,0,0,0,0,0,0,0,-2.2856,-2.2857,-2.2859,-2.297,-2.3258,-2.326,-2.36,-2.3392,0,0,0,0,0,0,0,0,0,0,-2.3116,-2.2997,-2.2857,-2.2859,-2.2971,-2.3257,-2.326,-2.3383,-2.3405,-2.3456,0,-2.3494,0,-2.3554,-2.3624,-2.3625,0,0,0,-2.2985,-2.2978,-2.3075,-2.286,-2.2974,-2.3257,-2.3132,-2.3396,-2.3421,-2.3486,-2.3499,-2.3513,-2.3559,-2.3626,-2.3628,-2.3866,-2.3867,0,0,-2.2969,-2.2898,-2.3057,-2.309,-2.3041,-2.3123,-2.3141,-2.3411,-2.3422,-2.35,-2.3521,-2.3565,-2.3628,-2.3631,-2.3866,-2.3866,0,0,0,-2.2912,-2.2886,-2.2977,-2.3075,-2.3129,-2.3131,-2.3152,-2.341,-2.3445,-2.3525,-2.3569,-2.363,-2.3634,-2.3866,-2.3866,-2.3814,0,0,0,-2.2903,-2.2853,-2.2969,-2.2928,-2.3124,-2.3273,-2.3143,-2.3427,-2.346,-2.3567,-2.363,-2.3637,-2.3865,-2.3866,-2.3815,-2.3801,0,0,0,-2.2845,-2.2846,-2.2881,-2.2924,-2.3046,-2.327,-2.3322,-2.3435,-2.3486,-2.3626,-2.3638,-2.3865,-2.3866,-2.3816,-2.3803,-2.3844,0,0,0,-2.2762,-2.2831,-2.2879,-2.2974,-2.3043,-2.3235,-2.3321,-2.3468,-2.3582,-2.3632,-2.3865,-2.3866,-2.3816,-2.3804,-2.3844,-2.3864,-2.3866,0,0,-2.2809,-2.2834,-2.2896,-2.2947,-2.3113,-2.3197,-2.3357,-2.3529,-2.3609,-2.3777,-2.3784,-2.3815,-2.3803,-2.3844,-2.3904,-2.3905,0,0,0,-2.2887,-2.293,-2.299,-2.3094,-2.3227,-2.3341,-2.3497,-2.3562,-2.3708,-2.3679,-2.3844,-2.3839,-2.3866,-2.3879,-2.388,-2.3908,-2.3869,-2.3869,-2.3869,-2.285,-2.2949,-2.3058,-2.3191,-2.3292,-2.3454,-2.3546,-2.3661,-2.373,-2.3768,-2.3817,-2.3842,-2.3854,-2.3855,-2.3883,-2.3837,-2.3837,-2.3837,-2.3837,-2.2929,-2.3006,-2.3099,-2.3237,-2.3342,-2.3461,-2.3621,-2.3667,-2.3795,-2.3811,-2.384,-2.3849,-2.3853,-2.3883,-2.3834,-2.3834,-2.3835,-2.3835,-2.3835,-2.2915,-2.2969,-2.3047,-2.321,-2.3326,-2.3462,-2.358,-2.3672,-2.376,-2.3788,-2.3852,-2.3853,-2.3865,-2.3812,-2.3812,-2.3812,-2.3813,-2.3813,-2.3813,-2.2869,-2.2958,-2.3046,-2.3195,-2.3276,-2.3395,-2.3561,-2.3644,-2.3761,-2.3818,-2.3819,-2.3885,-2.3836,-2.382,-2.3814,-2.3814,-2.3814,-2.3814,-2.3814,-2.2909,-2.2916,-2.305,-2.3131,-2.3317,-2.3427,-2.3544,-2.3707,-2.379,-2.3846,-2.3908,-2.3856,-2.3888,-2.3888,-2.3876,-2.3886,-2.3886,-2.3886,-2.3886,-2.2896,-2.2923,-2.3082,-2.3207,-2.3339,-2.346,-2.3613,-2.3744,-2.3882,-2.394,-2.3953,-2.3946,-2.3942,-2.3976,-2.3975,-2.3965,-2.3996,-2.3997,-2.3997,-2.2927,-2.2971,-2.3081,-2.3214,-2.3367,-2.3497,-2.3644,-2.3786,-2.3944,-2.4003,-2.3988,-2.3983,-2.3973,-2.3964,-2.4019,-2.4014,-2.3998,0,0]},{"header":{"parameterUnit":"m.s-1","parameterCategory":1,"la1":30.2992,"la2":30.254,"lo1":-89.0895,"lo2":-89.0443,"dy":0.0025,"dx":0.0025,"nx":19,"ny":19,"refTime":"2026-03-13T03:00:00:Z","depth":0,"parameterNumber":3,"parameterNumberName":"V-component_of_WINDS"},"data":[0,0,0,0.7456,0.7456,0.7469,0.7469,0.7475,0.7475,0,0,0,0,0,0,0,0,0,0,0,0.7443,0.7443,0.7456,0.7456,0.7469,0.7469,0.7475,0.7475,0,0,0,0,0,0,0,0,0,0,0,0.7444,0.7443,0.7443,0.7456,0.7469,0.7469,0.7475,0.7469,0,0,0,0,0,0,0,0,0,0,0.7459,0.7438,0.7443,0.7443,0.7456,0.7469,0.7469,0.7469,0.747,0.7464,0,0.7455,0,0.7465,0.7474,0.7474,0,0,0,0.7463,0.7437,0.7449,0.7443,0.7456,0.7469,0.7465,0.747,0.747,0.7464,0.7455,0.7455,0.7465,0.7474,0.7474,0.7417,0.7417,0,0,0.7462,0.7441,0.7449,0.7449,0.7444,0.7464,0.7465,0.747,0.7459,0.7455,0.7456,0.7465,0.7474,0.7474,0.7418,0.7417,0,0,0,0.7455,0.744,0.7452,0.7448,0.7452,0.7465,0.7466,0.7459,0.7464,0.7456,0.7465,0.7474,0.7474,0.7418,0.7418,0.7368,0,0,0,0.7455,0.7436,0.7451,0.7439,0.7451,0.7455,0.7454,0.7464,0.7465,0.7465,0.7474,0.7474,0.7419,0.7418,0.7371,0.7347,0,0,0,0.7446,0.7435,0.7434,0.7437,0.7442,0.7455,0.7461,0.7465,0.747,0.7474,0.7474,0.742,0.7418,0.7373,0.7351,0.7326,0,0,0,0.7429,0.7389,0.7433,0.7393,0.7442,0.7425,0.7461,0.745,0.7447,0.7474,0.7419,0.7418,0.7374,0.7353,0.7328,0.7299,0.7286,0,0,0.7366,0.738,0.7359,0.7399,0.7368,0.7424,0.7388,0.7405,0.7425,0.742,0.7418,0.737,0.7351,0.7326,0.722,0.7209,0,0,0,0.7332,0.7315,0.7312,0.7309,0.7323,0.7333,0.7359,0.7367,0.7364,0.7417,0.7356,0.7345,0.7332,0.7319,0.7309,0.7299,0.7411,0.7411,0.7412,0.7209,0.724,0.7206,0.7238,0.7236,0.7266,0.7267,0.7283,0.7312,0.7298,0.7295,0.7227,0.7211,0.7204,0.7193,0.7284,0.7284,0.7284,0.7284,0.7119,0.7101,0.7146,0.7128,0.7162,0.7148,0.7179,0.7201,0.7195,0.723,0.722,0.7254,0.7191,0.7183,0.728,0.7281,0.7281,0.7281,0.7282,0.704,0.7037,0.7049,0.7051,0.7051,0.7087,0.708,0.7111,0.714,0.713,0.7131,0.7132,0.7136,0.7129,0.7129,0.7129,0.7129,0.7129,0.7128,0.6952,0.6968,0.6957,0.6973,0.6978,0.6988,0.7023,0.7029,0.7044,0.7068,0.7068,0.7099,0.718,0.7199,0.7125,0.7125,0.7126,0.7126,0.7127,0.6845,0.6876,0.6859,0.6864,0.6888,0.6886,0.6929,0.694,0.6951,0.6947,0.6984,0.7039,0.7055,0.7063,0.7078,0.6977,0.6977,0.6977,0.6977,0.6776,0.6789,0.6781,0.6788,0.6799,0.6837,0.6822,0.6852,0.6887,0.6896,0.6917,0.6941,0.6948,0.696,0.697,0.6984,0.6862,0.6862,0.6862,0.6712,0.6728,0.6706,0.6741,0.6764,0.6784,0.677,0.6779,0.6826,0.6858,0.6904,0.6909,0.6949,0.696,0.6987,0.7002,0.7029,0,0]}]]